DW6222 Weather Reports


Display with metric or nautical units.
time (UTC)temp
F
wind
direction
speed
MPH
gust
MPH
rain 1hr
in
rain 24hr
in
rain mn
in
humidity
%
barometer
mb
20260904124550 66 37 3.0 8.0 0.00 0.32 0.12 99 1010.9
20260904123056 66 77 3.0 8.0 0.00 0.32 0.12 99 1010.7
20260904121556 66 24 3.0 9.0 0.00 0.32 0.12 99 1010.5
20260904120055 66 41 2.0 8.0 0.00 0.32 0.12 99 1010.6
20260904114557 66 20 2.0 7.0 0.00 0.32 0.12 99 1010.5
20260904113045 66 39 2.0 4.0 0.00 0.32 0.12 99 1010.3
20260904111559 66 51 1.0 4.0 0.00 0.32 0.12 99 1010.1
20260904110054 65 41 1.0 4.0 0.00 0.32 0.12 99 1010.0
20260904104549 65 64 1.0 3.0 0.01 0.32 0.12 99 1010.0
20260904103046 65 114 1.0 5.0 0.02 0.32 0.12 99 1010.0
20260904101554 65 0 3.0 6.0 0.04 0.32 0.12 99 1009.5
20260904100103 65 355 5.0 8.0 0.05 0.32 0.12 98 1009.5
20260904094549 65 103 7.0 14.0 0.05 0.31 0.11 98 1009.1
20260904093049 65 113 9.0 16.0 0.06 0.30 0.10 98 1009.1
20260904091551 65 187 4.0 12.0 0.05 0.28 0.08 98 1011.3
20260904090048 65 20 5.0 28.0 0.04 0.27 0.07 98 1011.0
20260904084559 65 341 4.0 8.0 0.04 0.26 0.06 98 1011.2
20260904083052 65 26 7.0 13.0 0.02 0.24 0.04 98 1009.9
20260904081547 65 69 3.0 8.0 0.01 0.23 0.03 98 1010.8
20260904080056 65 96 4.0 11.0 0.01 0.23 0.03 98 1009.9
20260904074604 65 53 2.0 9.0 0.00 0.22 0.02 98 1010.7
20260904073100 65 49 3.0 7.0 0.00 0.22 0.02 98 1010.8
20260904071558 65 42 4.0 12.0 0.00 0.22 0.02 98 1010.7
20260904070056 64 74 4.0 16.0 0.00 0.22 0.02 98 1010.9
20260904064551 64 101 10.0 16.0 0.00 0.22 0.02 98 1010.8
20260904063055 63 71 4.0 14.0 0.00 0.22 0.02 97 1011.4
20260904061559 63 46 4.0 11.0 0.00 0.22 0.02 97 1011.6
20260904060100 64 38 6.0 13.0 0.01 0.22 0.02 97 1011.8
20260904054558 63 49 8.0 16.0 0.04 0.22 0.02 97 1012.1
20260904053054 63 59 7.0 18.0 0.09 0.22 0.02 97 1012.0
20260904051608 63 71 8.0 17.0 0.13 0.22 0.02 97 1012.2
20260904050053 63 74 8.0 17.0 0.15 0.20 0.00 97 1012.2
20260904044549 63 108 7.0 16.0 0.14 0.17 0.17 96 1012.3
20260904043056 64 43 10.0 18.0 0.12 0.13 0.13 95 1012.1
20260904041550 65 5 11.0 19.0 0.09 0.09 0.09 94 1012.2
20260904040100 65 17 8.0 20.0 0.05 0.05 0.05 92 1012.4
20260904034555 67 352 8.0 17.0 0.03 0.03 0.03 90 1012.2
20260904033052 68 46 4.0 8.0 0.01 0.01 0.01 89 1011.8
20260904031555 69 12 3.0 7.0 0.00 0.00 0.00 85 1011.5
20260904030057 69 77 4.0 14.0 0.00 0.00 0.00 82 1011.1
20260904024555 69 101 6.0 13.0 0.00 0.00 0.00 82 1010.8
20260904023050 69 61 5.0 13.0 0.00 0.00 0.00 82 1011.0
20260904021546 69 68 7.0 15.0 0.00 0.00 0.00 82 1010.8
20260904020057 69 84 5.0 15.0 0.00 0.00 0.00 82 1011.0
20260904014605 69 50 7.0 14.0 0.00 0.00 0.00 83 1011.0
20260904013053 69 44 5.0 14.0 0.00 0.00 0.00 83 1010.8
20260904011557 69 38 8.0 20.0 0.00 0.00 0.00 82 1010.9
20260904010112 69 50 6.0 15.0 0.00 0.00 0.00 83 1010.8
20260904004550 68 39 7.0 14.0 0.00 0.00 0.00 84 1010.9
20260904003101 68 57 7.0 15.0 0.00 0.00 0.00 84 1010.9
20260904001554 68 51 7.0 16.0 0.00 0.00 0.00 84 1011.1
20260904000058 68 60 9.0 16.0 0.00 0.00 0.00 84 1010.7
20260903234549 69 45 7.0 16.0 0.00 0.00 0.00 82 1011.0
20260903233105 70 42 9.0 18.0 0.00 0.00 0.00 80 1011.2
20260903231546 70 49 7.0 15.0 0.00 0.00 0.00 79 1011.0
20260903230055 71 49 6.0 16.0 0.00 0.00 0.00 77 1011.1
20260903224551 71 98 7.0 14.0 0.00 0.00 0.00 76 1011.2
20260903223048 71 69 6.0 12.0 0.00 0.00 0.00 76 1011.3
20260903221557 71 49 7.0 14.0 0.00 0.00 0.00 76 1011.2
20260903220056 70 76 7.0 17.0 0.00 0.00 0.00 78 1011.1
20260903214552 69 53 6.0 13.0 0.00 0.00 0.00 83 1011.2
20260903213052 69 51 10.0 16.0 0.00 0.00 0.00 84 1011.0
20260903211557 69 42 8.0 15.0 0.00 0.00 0.00 86 1011.2
20260903210108 69 50 9.0 17.0 0.00 0.00 0.00 86 1011.2
20260903204608 70 54 9.0 20.0 0.00 0.00 0.00 84 1011.4
20260903203046 70 65 9.0 17.0 0.00 0.00 0.00 83 1011.2
20260903201556 70 32 9.0 16.0 0.00 0.00 0.00 83 1011.3
20260903200101 71 57 8.0 15.0 0.00 0.00 0.00 82 1011.2
20260903194549 71 58 8.0 14.0 0.00 0.00 0.00 81 1011.2
20260903193055 71 74 8.0 16.0 0.00 0.00 0.00 81 1011.2
20260903191555 72 51 8.0 17.0 0.00 0.00 0.00 81 1011.4
20260903190055 71 47 10.0 16.0 0.00 0.00 0.00 80 1011.5
20260903184555 72 67 8.0 15.0 0.00 0.00 0.00 80 1011.9
20260903183055 74 65 7.0 17.0 0.00 0.00 0.00 72 1012.0
20260903181556 73 80 10.0 20.0 0.00 0.00 0.00 67 1011.9
20260903180059 73 82 7.0 17.0 0.00 0.00 0.00 69 1011.9
20260903174552 73 86 10.0 15.0 0.00 0.00 0.00 71 1012.1
20260903173046 73 99 11.0 16.0 0.00 0.00 0.00 72 1012.3
20260903171557 73 109 11.0 17.0 0.00 0.00 0.00 71 1012.2
20260903170056 74 57 8.0 15.0 0.00 0.00 0.00 70 1012.4
20260903164553 73 107 9.0 16.0 0.00 0.00 0.00 71 1012.7
20260903163048 72 98 5.0 13.0 0.00 0.00 0.00 76 1012.8
20260903161546 71 51 4.0 12.0 0.00 0.00 0.00 83 1012.6
20260903160106 70 42 9.0 13.0 0.00 0.00 0.00 86 1012.7
20260903154548 70 45 6.0 14.0 0.00 0.00 0.00 88 1012.7
20260903153045 70 54 6.0 15.0 0.00 0.00 0.00 88 1012.5
20260903151556 71 49 5.0 11.0 0.00 0.00 0.00 86 1012.7
20260903150107 71 56 7.0 12.0 0.00 0.00 0.00 82 1012.8
20260903144555 71 28 3.0 9.0 0.00 0.00 0.00 86 1012.8
20260903143048 71 65 3.0 8.0 0.00 0.00 0.00 86 1012.7
20260903141555 70 0 0.0 1.0 0.00 0.00 0.00 88 1013.0
20260903140109 69 0 0.0 0.0 0.00 0.00 0.00 89 1013.0
20260903134554 69 0 0.0 0.0 0.00 0.00 0.00 91 1013.1
20260903133106 68 0 0.0 0.0 0.00 0.00 0.00 93 1013.2
20260903131556 67 0 0.0 0.0 0.00 0.00 0.00 93 1013.0
20260903130055 67 0 0.0 0.0 0.00 0.00 0.00 94 1013.1